Regional Weather Roundup
Issued by NWS

Home | Current Version | Previous Version | Graphics & Text | Print | Product List | Glossary On
Versions: 1 2 3 4 5 6 7 8 9 10 11 12 13 14 15 16 17 18 19 20 21 22 23 24 25 26 27 28 29 30 31 32 33 34 35 36 37 38 39 40 41 42 43 44 45 46 47 48 49 50
000
ASUS43 KBIS 011010
RWRND

NORTH DAKOTA REGIONAL WEATHER ROUNDUP
NATIONAL WEATHER SERVICE BISMARCK ND
500 AM CDT SAT AUG 01 2015

NOTE: "FAIR" INDICATES FEW OR NO CLOUDS BELOW 12,000 FEET WITH NO
SIGNIFICANT WEATHER AND/OR OBSTRUCTIONS TO VISIBILITY.


NDZ001>003-009>011-017-011100-
NORTHWEST NORTH DAKOTA

CITY           SKY/WX    TMP DP  RH WIND       PRES   REMARKS
WILLISTON      CLEAR     61  53  75 N6        29.96F
MINOT          MOCLDY    56  52  86 CALM      29.98F
MINOT AFB      PTCLDY    54  53  94 CALM      29.97F
$$

NDZ018>021-031>035-040>046-011100-
SOUTHWEST NORTH DAKOTA

CITY           SKY/WX    TMP DP  RH WIND       PRES   REMARKS
BISMARCK       PTCLDY    58  55  90 NE7       30.00F
DICKINSON      CLEAR     54  49  83 E7        29.95F
GARRISON         N/A     55  53  93 CALM      29.99F
HETTINGER ARPT CLEAR     63  49  60 CALM      29.99F
$$

NDZ004>008-012>016-024-026-027-054-011100-
NORTHEAST NORTH DAKOTA

CITY           SKY/WX    TMP DP  RH WIND       PRES   REMARKS
GRAND FORKS    CLEAR     55  51  86 W6        29.96R
GRND FRKS AFB  CLEAR     55  51  86 W5        29.97R
DEVILS LAKE    PTCLDY    63  55  77 CALM      29.99F
$$

NDZ022-023-025-028>030-036>039-047>053-011100-
SOUTHEAST NORTH DAKOTA

CITY           SKY/WX    TMP DP  RH WIND       PRES   REMARKS
FARGO          PTCLDY    59  55  87 SW3       29.97F
JAMESTOWN      PTCLDY    59  55  87 CALM      30.00S
$$



USA.gov is the U.S. government's official web portal to all federal, state and local government web resources and services.